Location: Banksville Park
(38.5557°N, 75.1182°W)
Time: 06:01:33
(UTC+00:00)

Cosmos 858 Rocket - Pass Details

Date: 19 September 2020
Orbit: 756 x 774 km, 74.1° (Epoch: 19 October)

Event Time Altitude Azimuth Distance (km) Brightness Sun altitude
Rises 10:03:52 0° 339° (NNW) 3,219 7.6 -9.0°
Reaches altitude 10° 10:06:14 10° 338° (NNW) 2,290 6.8 -8.6°
Maximum altitude 10:11:25 76° 254° (WSW) 784 4.4 -7.6°
Drops below altitude 10° 10:16:35 10° 169° (S) 2,280 7.0 -6.6°
Sets 10:18:56 0° 168° (SSE) 3,204 7.8 -6.1°
